Wind_Speed
14 14 14 14 14 14 13 12 11 9 9 8 7 6 6 6 6 6 6 5 4 4 3 3 1 2 3 5 7 8 10 12 13 15 16 17 18 19 19 19 19 19 18 18
13 13 14 14 13 13 12 10 9 8 8 7 7 6 5 5 5 5 6 6 5 4 4 3 2 2 3 5 6 8 10 12 13 14 16 17 18 18 19 19 19 19 18 17
12 12 12 12 11 10 10 9 7 6 6 6 6 5 4 4 5 5 6 6 6 5 4 3 2 2 4 5 6 8 9 11 13 14 16 17 18 18 19 19 19 19 18 17
13 12 11 11 10 9 8 7 6 5 5 4 4 4 4 4 5 5 5 5 5 5 4 3 3 3 4 5 6 7 9 11 12 14 15 16 17 18 19 19 19 19 18 17
11 11 10 10 9 9 7 7 6 5 4 4 4 4 3 4 3 3 4 4 4 5 5 4 3 4 5 6 6 7 9 10 12 13 15 16 17 18 19 19 19 19 18 17
11 10 9 9 9 9 7 6 6 5 5 4 3 4 3 3 3 2 3 4 4 5 4 4 4 4 5 6 7 8 9 10 11 13 15 16 16 17 18 19 19 19 19 17
11 10 10 10 10 9 7 6 6 5 5 4 3 3 3 2 2 2 3 4 4 4 4 4 5 5 6 7 7 8 9 9 11 13 14 15 16 17 18 18 19 19 19 18
10 11 10 10 9 8 7 7 6 6 5 4 3 2 2 1 1 1 2 3 3 3 4 5 6 6 7 7 7 8 8 9 10 12 13 14 15 16 17 18 18 19 19 18
10 11 11 10 9 8 7 6 5 5 4 3 3 2 2 1 1 1 2 3 3 4 5 6 7 7 8 8 8 8 8 9 10 11 13 14 14 15 16 17 18 18 18 18
10 10 10 9 8 6 6 4 4 4 4 3 2 1 2 2 3 3 3 4 4 5 5 6 7 8 8 8 8 8 9 9 10 11 12 13 13 14 15 16 17 18 18 17
8 8 8 7 6 5 4 3 3 3 3 3 3 3 4 4 4 4 4 5 6 6 7 7 8 8 8 9 8 9 9 10 10 11 11 12 13 13 14 15 16 17 17 17
6 6 6 5 5 4 3 2 2 3 4 5 5 4 6 6 5 5 5 6 6 7 8 9 9 9 9 9 9 9 10 10 10 11 11 12 12 13 13 14 15 16 16 16
4 3 3 3 2 2 2 3 4 5 6 6 7 6 7 7 7 7 7 7 8 9 9 10 10 10 10 11 11 11 11 11 11 11 11 11 11 12 13 13 14 14 15 16
1 1 0 0 1 2 3 4 5 6 7 8 8 7 8 9 9 9 9 10 10 11 11 11 11 11 11 12 12 12 12 12 12 11 11 11 11 12 12 12 13 13 14 15
1 2 2 3 3 3 4 5 6 7 8 9 9 10 10 11 11 11 11 11 12 12 12 13 13 13 13 13 13 13 13 13 13 12 12 12 12 12 12 12 12 13 13 13
3 4 4 5 6 6 7 8 8 9 10 10 10 10 11 12 13 12 12 13 13 13 13 14 14 15 15 15 14 14 14 14 14 13 13 13 13 13 12 12 12 12 12 12
6 6 7 7 8 9 9 9 10 11 11 12 12 12 12 13 14 14 14 14 14 14 14 15 16 16 16 16 16 16 15 15 15 15 15 14 14 14 13 13 13 12 12 12
9 9 9 10 10 11 10 11 12 13 14 14 14 14 14 14 15 15 15 15 15 15 15 16 16 17 17 17 17 17 17 17 17 16 16 16 15 15 15 14 14 13 13 12
11 12 12 12 12 11 12 13 14 15 16 16 16 16 16 16 16 16 17 17 17 17 17 17 17 17 18 18 19 19 19 18 18 18 17 17 17 17 16 15 15 14 14 13
14 14 15 15 16 15 15 15 16 17 17 17 18 18 19 19 19 19 19 19 19 19 19 19 19 19 19 19 20 20 20 20 20 20 19 19 19 19 18 17 16 16 15 15
16 17 17 18 18 18 18 18 19 19 20 20 20 21 21 21 22 22 21 21 21 21 21 22 22 22 22 22 22 22 22 22 22 22 22 21 21 21 20 19 18 18 17 16
19 20 20 21 22 22 22 22 22 23 23 23 23 24 24 24 24 24 24 24 24 24 24 25 25 24 24 25 24 24 24 24 25 25 24 24 23 23 22 21 21 20 19 19
23 23 24 24 24 25 25 26 26 27 27 27 27 27 27 27 27 27 27 27 27 27 27 28 28 27 27 27 27 26 26 26 27 26 26 26 26 25 25 24 23 22 22 21
25 26 27 27 27 28 29 29 30 31 31 31 31 31 31 31 31 31 31 31 31 31 31 31 31 30 30 29 29 29 29 29 29 29 28 28 28 27 27 26 25 25 24 23
26 28 30 30 31 31 32 33 33 34 35 35 35 36 36 36 36 35 35 35 35 35 35 35 34 33 33 32 32 32 31 31 31 31 31 31 30 30 29 29 28 27 27 26
30 32 34 34 34 35 35 36 37 38 38 39 39 39 39 40 40 39 39 38 39 39 38 38 37 37 36 36 35 35 34 34 34 34 34 33 33 32 32 31 30 30 29 28
Wind_Direction
191 192 195 201 209 212 212 213 216 210 209 217 224 226 222 218 221 220 210 208 212 209 204 203 230 317 340 345 350 350 347 348 350 350 351 350 349 349 347 346 344 342 340 337
177 179 184 190 198 203 199 201 200 197 201 211 211 210 204 205 210 207 200 198 205 211 215 212 248 307 330 338 343 342 342 344 346 348 350 351 351 350 349 349 348 346 344 343
164 171 179 186 186 183 182 193 196 193 196 202 200 202 211 213 202 192 194 193 200 209 216 229 261 304 321 331 334 335 336 340 345 347 350 351 352 353 352 351 351 349 348 346
155 162 172 175 180 168 163 170 178 190 197 197 190 192 190 185 184 186 195 192 200 208 220 239 269 299 316 325 325 328 334 338 342 345 348 351 353 354 355 354 353 353 352 351
145 147 150 159 161 161 152 155 154 160 175 189 195 198 180 180 179 195 199 197 205 211 222 235 266 294 311 320 321 326 332 337 342 346 350 351 353 355 356 357 358 357 355 354
139 141 142 149 151 156 157 156 147 149 161 167 166 167 150 158 169 181 198 211 217 215 225 243 268 288 303 312 318 323 328 335 341 346 349 351 353 356 358 359 0 0 359 356
136 137 137 138 141 145 149 153 151 155 162 161 148 132 127 145 169 179 204 218 223 225 237 257 272 284 295 304 311 316 323 332 339 344 347 349 352 356 358 360 1 2 1 360
129 128 129 129 127 135 145 150 153 158 159 155 152 117 101 108 140 191 237 231 243 249 253 265 272 278 286 293 301 308 316 326 334 340 345 348 351 355 358 360 1 3 4 4
122 127 129 129 131 135 142 153 164 167 162 161 155 111 71 47 301 285 276 269 265 263 264 269 271 275 281 286 294 302 310 320 329 336 341 345 349 353 357 359 1 4 6 6
113 122 128 129 129 137 145 157 167 189 188 191 209 260 308 304 294 285 282 277 272 271 274 276 277 278 280 284 291 298 305 314 323 331 337 343 346 350 355 358 1 4 6 7
109 120 124 127 130 133 149 163 178 198 216 234 253 272 292 299 306 298 279 268 266 271 278 285 285 283 282 284 289 294 300 307 315 324 332 338 343 347 352 355 359 2 5 8
103 115 126 132 143 148 151 184 229 242 255 267 277 281 285 296 304 302 288 279 274 271 271 276 280 282 282 284 285 289 294 301 308 317 325 332 338 344 348 352 355 359 3 6
115 115 118 131 156 184 211 236 249 263 269 281 286 288 288 301 303 303 296 285 282 279 276 274 275 278 279 280 282 284 288 295 302 309 316 324 331 338 342 346 350 354 358 3
103 142 177 219 215 230 241 255 264 271 278 284 289 290 286 294 296 297 294 289 285 281 279 276 275 276 278 279 279 280 283 287 294 301 307 314 322 330 336 340 344 348 352 358
274 294 285 281 277 280 277 273 273 278 280 281 283 283 281 285 289 291 291 291 288 283 279 277 276 277 279 279 277 276 278 282 287 292 298 305 312 320 326 331 335 340 345 350
279 284 293 288 288 290 287 278 273 275 279 282 282 284 282 285 287 289 290 289 288 285 282 279 277 278 277 277 276 275 276 278 281 286 290 296 303 310 315 320 325 330 335 340
287 286 289 289 289 289 287 282 276 277 278 281 284 285 282 284 286 289 290 290 288 287 284 279 277 277 277 275 274 274 274 275 277 280 284 289 294 300 305 310 315 320 325 329
288 286 285 285 285 285 288 282 282 282 282 284 285 286 282 282 284 286 288 287 285 284 283 281 279 278 277 275 273 273 273 274 275 277 279 282 287 291 296 301 305 309 314 319
287 285 285 285 285 286 283 283 282 282 283 285 284 284 283 281 281 282 283 282 282 281 281 280 280 280 278 276 274 273 273 273 274 275 276 277 280 284 289 293 297 300 304 308
285 285 285 287 287 288 286 283 282 282 283 284 283 282 281 281 280 280 279 278 278 277 277 278 279 279 278 276 274 273 273 273 273 273 274 274 276 279 282 286 289 292 296 299
285 286 286 287 287 287 288 286 283 281 283 281 281 281 281 281 282 280 279 278 277 276 276 276 277 278 278 276 275 274 273 272 272 272 272 272 273 275 277 280 283 286 288 291
285 285 286 286 286 286 287 287 284 282 282 282 281 281 281 280 281 280 279 279 277 276 276 276 276 277 277 277 276 274 273 271 271 271 271 271 272 273 275 277 279 281 283 284
284 285 285 284 285 285 285 286 285 284 283 284 283 282 281 280 280 279 278 279 278 277 276 275 275 275 275 276 276 274 272 270 270 269 269 269 270 271 272 274 275 277 279 280
283 284 284 284 284 284 284 285 285 285 284 283 283 282 280 280 278 278 277 276 276 275 275 275 273 273 273 273 274 273 272 270 269 268 267 267 268 269 271 272 273 273 275 277
282 281 281 282 284 283 283 285 285 285 284 283 281 281 280 280 279 278 277 275 274 274 273 273 272 271 271 270 270 271 271 270 269 268 267 266 266 267 269 270 271 272 272 274
282 282 281 281 282 282 282 281 282 282 282 281 280 280 279 279 279 277 276 275 274 273 273 271 271 269 269 268 268 268 268 268 267 267 266 266 265 265 266 267 268 269 270 270
Height
5807 5811 5814 5818 5820 5823 5826 5828 5830 5833 5834 5836 5837 5838 5839 5839 5840 5841 5842 5843 5844 5844 5845 5845 5845 5845 5844 5844 5842 5841 5840 5837 5835 5832 5829 5825 5821 5817 5813 5809 5805 5801 5797 5794
5807 5810 5813 5816 5819 5821 5824 5827 5829 5832 5833 5835 5836 5837 5837 5837 5838 5839 5841 5842 5843 5843 5844 5844 5844 5844 5843 5842 5841 5840 5839 5836 5834 5831 5828 5824 5820 5816 5812 5808 5803 5799 5795 5791
5807 5811 5812 5815 5818 5821 5824 5827 5829 5830 5832 5833 5834 5836 5836 5836 5837 5838 5839 5840 5841 5842 5843 5843 5843 5842 5842 5841 5840 5839 5837 5835 5833 5830 5826 5823 5819 5815 5811 5806 5802 5798 5794 5790
5807 5810 5812 5816 5818 5821 5823 5826 5827 5829 5831 5832 5834 5835 5835 5835 5836 5837 5838 5839 5840 5841 5841 5841 5841 5841 5841 5840 5839 5838 5836 5834 5832 5829 5825 5822 5818 5814 5810 5805 5801 5797 5793 5789
5810 5811 5814 5816 5818 5821 5823 5825 5827 5828 5830 5832 5833 5834 5835 5834 5835 5836 5837 5838 5839 5840 5840 5840 5840 5840 5839 5839 5838 5837 5835 5833 5831 5827 5824 5821 5817 5813 5809 5804 5800 5796 5792 5788
5812 5813 5815 5817 5819 5822 5824 5826 5827 5828 5830 5831 5832 5833 5834 5833 5834 5835 5836 5837 5838 5838 5838 5838 5838 5838 5838 5837 5836 5835 5833 5832 5829 5826 5823 5820 5816 5812 5808 5804 5800 5796 5791 5787
5814 5815 5817 5819 5820 5823 5825 5827 5828 5829 5830 5831 5831 5831 5833 5833 5833 5834 5834 5835 5836 5836 5837 5837 5837 5836 5836 5835 5834 5833 5832 5830 5828 5825 5822 5819 5815 5811 5807 5803 5799 5795 5791 5787
5815 5817 5819 5820 5822 5823 5825 5827 5829 5830 5830 5830 5831 5830 5832 5832 5832 5832 5833 5834 5834 5834 5835 5835 5835 5835 5834 5834 5833 5832 5830 5829 5826 5824 5821 5818 5814 5811 5807 5803 5799 5795 5791 5787
5818 5819 5820 5821 5823 5824 5826 5827 5829 5829 5829 5830 5830 5830 5831 5831 5831 5831 5832 5832 5832 5833 5833 5833 5833 5833 5832 5832 5831 5830 5828 5827 5825 5823 5820 5817 5814 5810 5807 5803 5799 5795 5791 5787
5819 5820 5822 5822 5824 5825 5826 5827 5828 5829 5829 5829 5829 5829 5830 5830 5830 5830 5831 5831 5831 5831 5831 5831 5831 5830 5830 5829 5829 5827 5826 5825 5823 5821 5819 5816 5813 5809 5806 5803 5799 5795 5791 5787
5821 5822 5823 5823 5824 5825 5826 5827 5827 5828 5828 5829 5828 5831 5829 5829 5829 5829 5829 5829 5829 5829 5829 5829 5828 5828 5827 5827 5826 5825 5824 5823 5821 5819 5817 5814 5812 5809 5806 5802 5799 5795 5792 5788
5823 5824 5824 5824 5825 5825 5825 5826 5827 5828 5828 5827 5827 5831 5828 5827 5827 5827 5827 5826 5826 5827 5826 5826 5826 5825 5825 5824 5823 5823 5822 5821 5819 5817 5815 5813 5810 5808 5805 5802 5799 5796 5792 5789
5823 5824 5824 5825 5827 5826 5825 5825 5825 5826 5826 5826 5826 5829 5826 5825 5825 5825 5824 5824 5824 5824 5824 5823 5823 5822 5822 5821 5821 5820 5819 5818 5817 5815 5813 5811 5809 5807 5804 5801 5798 5795 5792 5789
5823 5824 5825 5825 5825 5824 5824 5824 5824 5824 5824 5824 5824 5825 5824 5823 5822 5822 5822 5821 5821 5821 5820 5820 5820 5819 5819 5818 5817 5817 5816 5815 5814 5813 5811 5809 5807 5805 5802 5800 5797 5795 5792 5789
5823 5824 5823 5823 5823 5823 5823 5823 5823 5822 5822 5822 5822 5821 5821 5820 5820 5819 5819 5818 5818 5817 5817 5816 5816 5816 5815 5815 5814 5813 5813 5812 5811 5810 5808 5807 5805 5803 5801 5798 5796 5794 5791 5788
5822 5822 5822 5822 5822 5821 5821 5821 5820 5820 5819 5819 5819 5819 5818 5817 5817 5816 5815 5814 5814 5813 5813 5812 5812 5812 5811 5811 5810 5810 5809 5808 5807 5806 5805 5804 5802 5800 5799 5796 5794 5792 5790 5787
5820 5820 5821 5820 5819 5819 5819 5818 5818 5817 5816 5816 5815 5816 5814 5814 5813 5812 5812 5811 5810 5809 5809 5808 5808 5808 5807 5806 5806 5805 5805 5804 5803 5802 5801 5800 5799 5797 5796 5794 5792 5790 5788 5786
5818 5818 5817 5817 5817 5816 5818 5815 5814 5813 5812 5812 5811 5811 5810 5809 5809 5808 5808 5807 5806 5805 5805 5804 5803 5803 5802 5802 5801 5800 5800 5799 5799 5798 5797 5796 5795 5794 5792 5791 5789 5787 5785 5784
5815 5814 5813 5813 5812 5812 5812 5811 5810 5809 5808 5807 5807 5806 5806 5805 5804 5804 5803 5802 5802 5801 5800 5799 5799 5798 5797 5797 5796 5795 5795 5794 5794 5793 5792 5791 5791 5790 5788 5787 5786 5784 5782 5781
5811 5810 5809 5808 5807 5807 5808 5807 5805 5805 5803 5803 5802 5801 5800 5800 5799 5799 5798 5797 5796 5795 5795 5794 5793 5792 5792 5791 5790 5790 5789 5789 5788 5787 5787 5786 5785 5785 5784 5782 5781 5780 5778 5777
5806 5804 5804 5803 5801 5801 5801 5800 5800 5800 5799 5797 5795 5795 5794 5794 5793 5793 5792 5791 5790 5789 5789 5788 5787 5786 5785 5785 5784 5784 5783 5783 5782 5781 5780 5780 5779 5779 5778 5777 5776 5775 5774 5773
5800 5799 5798 5797 5796 5797 5794 5793 5792 5791 5790 5789 5788 5788 5787 5787 5786 5785 5784 5784 5783 5783 5782 5781 5780 5780 5779 5778 5777 5777 5776 5776 5775 5774 5774 5773 5773 5772 5772 5771 5770 5769 5768 5767
5792 5792 5790 5790 5791 5788 5786 5785 5783 5782 5782 5781 5780 5780 5779 5778 5777 5777 5776 5775 5775 5774 5774 5773 5772 5772 5771 5770 5769 5769 5768 5767 5767 5767 5766 5766 5765 5765 5765 5764 5763 5763 5762 5761
5785 5783 5782 5781 5781 5779 5777 5776 5775 5773 5772 5771 5770 5770 5769 5769 5768 5767 5767 5766 5765 5765 5764 5763 5763 5763 5762 5761 5760 5760 5759 5759 5758 5758 5758 5758 5757 5757 5757 5756 5756 5755 5755 5754
5778 5775 5773 5772 5772 5770 5768 5766 5765 5763 5762 5761 5760 5759 5758 5758 5757 5756 5756 5755 5755 5754 5753 5753 5752 5752 5752 5751 5751 5750 5750 5749 5749 5748 5749 5748 5748 5748 5748 5748 5748 5747 5747 5747
5768 5766 5764 5763 5762 5759 5759 5757 5755 5753 5751 5750 5749 5748 5747 5745 5744 5744 5743 5742 5742 5742 5741 5741 5740 5740 5740 5740 5739 5739 5739 5738 5738 5738 5738 5738 5738 5738 5738 5738 5739 5738 5738 5738